#timestamp,LO_Frequency,Hit,StdDev 
1576152015.9,286046997.1,P
1576152035.7,286046996.6,N
1576152055.5,286046997.1,N
1576152075.4,286046996.5,N
1576152095.2,286046997.1,N
1576152115.1,286046996.9,N
1576152116.0,286046996.9,N
1576152135.8,286046999.1,N
1576152155.6,286046996.7,N
1576152175.5,286046998.9,N
1576152195.3,286046999.0,N
1576152215.1,286046998.1,N
1576152235.9,286046998.5,N
1576152255.7,286046998.6,N
1576152275.6,286046998.2,N
1576152295.4,286047000.9,N
1576152315.2,286047000.5,N
1576152335.1,286047000.9,N
1576152336.0,286047000.9,N
1576152355.8,286047001.2,N
1576152375.7,286046999.0,N
1576152395.5,286046998.9,N
1576152415.3,286046996.5,N
1576152435.2,286046999.5,N
1576152455.0,286046998.7,N
1576152455.9,286046998.7,N
1576152475.7,286047000.7,N
1576152495.6,286047002.1,N
1576152515.4,286047002.2,N
1576152535.3,286047000.6,N
1576152555.1,286047002.4,N
1576152556.0,286047002.4,N
1576152575.8,286047002.1,N
1576152595.7,286047001.5,N
1576152615.5,286046999.8,N
1576152635.3,286047000.2,N
1576152655.2,286047000.1,N
1576152675.0,286047001.2,N
1576152675.9,286047001.2,N
1576152695.8,286046998.4,N
1576152715.6,286046999.2,N
1576152735.4,286046999.4,N
1576152755.3,286046996.5,N
1576152775.1,286046996.9,N
1576152795.9,286046999.1,N
1576152815.7,286046999.5,N
1576152835.5,286046996.7,N
1576152855.4,286046999.6,N
1576152875.2,286046999.0,N
1576152895.0,286046997.5,N
1576152895.9,286046997.5,N
1576152915.8,286046997.5,N
1576152935.6,286046997.4,N
1576152955.5,286046999.1,N
1576152975.3,286046997.6,N
1576152995.1,286046995.3,N
1576153015.9,286046994.9,N
1576153035.7,286046997.9,N
1576153055.5,286046998.0,N
1576153075.4,286046996.2,N
1576153095.2,286046995.7,N
1576153115.1,286046995.3,N
1576153116.0,286046995.3,N
1576153135.8,286046994.9,N
1576153155.6,286046998.0,N
1576153175.5,286046997.5,N
1576153195.3,286046996.9,N
1576153215.1,286047011.9,Y
1576153235.9,286047004.2,P
1576153255.7,286047005.4,N
1576153275.6,286047005.8,N
1576153295.4,286047002.1,N
1576153315.2,286047001.0,N
1576153335.1,286046996.8,N
1576153336.0,286046996.8,N
1576153355.8,286046995.4,N
1576153375.6,286046996.4,N
1576153395.5,286046995.5,N
1576153415.3,286046995.5,N
1576153435.2,286046997.3,N
1576153455.9,286046998.8,N
1576153475.7,286046999.4,N
1576153495.6,286046997.0,N
1576153515.4,286046995.7,N
1576153535.2,286046995.4,N
1576153555.1,286046995.0,N
1576153556.0,286046995.0,N
1576153575.8,286046993.3,N
1576153595.7,286046995.7,N
1576153615.5,286046993.6,N
1576153635.3,286046994.7,N
1576153655.2,286046991.8,N
1576153675.0,286046991.8,N
1576153675.9,286046991.8,N
1576153695.8,286046994.6,N
1576153715.6,286046994.8,N
1576153735.4,286046992.4,N
1576153755.3,286046992.5,N
1576153775.1,286046991.7,N
1576153795.8,286046993.4,N
1576153815.7,286046996.1,N
1576153835.5,286046996.4,N
1576153855.4,286046996.3,N
1576153875.2,286046993.8,Y
1576153895.0,286046998.5,P
1576153895.9,286046998.5,N
1576153915.8,286047000.3,N
1576153935.6,286046998.1,N
1576153955.4,286047001.2,N
1576153975.3,286047000.8,N
1576153995.1,286046998.3,N
1576154015.9,286046998.6,N
1576154035.7,286046998.6,N
1576154055.5,286046998.4,N
1576154075.4,286047001.1,N
1576154095.2,286047001.6,N
1576154115.0,286047000.2,N
1576154115.9,286047000.2,N
1576154135.8,286046998.5,N
1576154155.6,286046998.3,N
1576154175.5,286046997.1,N
1576154195.3,286046996.5,N
1576154215.1,286046999.6,N
1576154235.9,286046997.7,N
1576154255.7,286046995.2,N
1576154275.5,286046995.5,N
1576154295.4,286046997.8,N
1576154315.2,286046995.2,N
1576154335.1,286046997.6,N
1576154336.0,286046997.6,N
1576154355.8,286046996.1,N
1576154375.6,286046995.1,N
1576154395.5,286046995.0,N
1576154415.3,286046997.9,N
1576154435.2,286046997.2,N
1576154455.9,286046997.5,N
1576154475.7,286046998.0,N
1576154495.6,286046996.8,N
1576154515.4,286046996.6,N
1576154535.2,286046999.5,N
1576154555.1,286046999.4,N
1576154556.0,286046999.4,N
1576154575.8,286046998.5,N
1576154595.7,286047000.3,N
1576154615.5,286047001.2,N
1576154635.3,286046998.7,N
1576154655.2,286046999.5,N
1576154675.0,286046996.5,N
1576154675.9,286046996.5,N
1576154695.7,286046998.5,N
1576154715.6,286046999.0,N
1576154735.4,286046999.5,N
1576154755.3,286046999.2,N
1576154775.1,286046998.5,N
1576154795.8,286046998.1,N
1576154815.7,286047000.6,N
1576154835.5,286047000.7,N
1576154855.4,286047000.1,N
1576154875.2,286047000.3,N
1576154895.0,286047000.7,N
1576154895.9,286047000.7,N
1576154915.8,286046998.3,N
1576154935.6,286046998.6,N
1576154955.4,286046998.4,N
1576154975.3,286046998.8,N
1576154995.1,286046998.2,N
1576155015.9,286047001.2,N
1576155035.7,286046998.8,N
1576155055.5,286046999.0,N
1576155075.4,286046999.1,N
1576155095.2,286046999.2,N
1576155115.0,286046998.4,N
1576155115.9,286046998.4,N
1576155135.8,286046998.8,N
1576155155.6,286046998.6,N
1576155175.5,286047000.5,N
1576155195.3,286047000.3,N
1576155215.1,286046999.7,N
1576155235.9,286046999.8,N
1576155255.7,286047001.0,N
1576155275.6,286046998.5,N
1576155295.4,286046999.4,N
1576155315.2,286046999.2,N
1576155335.1,286046998.3,N
1576155336.0,286046998.3,N
1576155355.8,286047001.2,N
1576155375.6,286046998.5,N
1576155395.5,286046998.2,N
1576155415.3,286047000.0,N
1576155435.2,286047002.4,N
1576155455.9,286047001.5,N
1576155475.7,286046999.7,N
1576155495.6,286047002.0,N
1576155515.4,286047004.2,Y
1576155535.2,286047003.3,P
1576155555.1,286047001.8,N
1576155556.0,286047001.8,N
1576155575.8,286047001.9,N
1576155595.7,286047003.9,Y
